Regional Weather Roundup
Issued by NWS

Home | Current Version | Previous Version | Graphics & Text | Print | Product List | Glossary On
Versions: 1 2 3 4 5 6 7 8 9 10 11 12 13 14 15 16 17 18 19 20 21 22 23 24 25 26 27 28 29 30 31 32 33 34 35 36 37 38 39 40 41 42 43 44 45 46 47 48 49 50
000
ASUS43 KTOP 200959
RWRKS

WEATHER ROUNDUP FOR KANSAS
NATIONAL WEATHER SERVICE GOODLAND KS
500 AM CDT SUN APR 20 2014

NOTE:  "FAIR" INDICATES FEW OR NO CLOUDS BELOW 12,000 FEET WITH NO
SIGNIFICANT WEATHER AND/OR OBSTRUCTIONS TO VISIBILITY.

KSZ001>006-013>018-027>032-041>047-201100-
NORTHWEST KANSAS

CITY           SKY/WX    TMP DP  RH WIND       PRES   REMARKS
GOODLAND       MOCLDY    44  43  96 N6        29.99F FOG
HAYS           MOCLDY    54  46  76 CALM      29.99S
HILL CITY      MOCLDY    55  50  83 S3        29.98S
RUSSELL        MOCLDY    60  49  66 S16       29.98S
$$

KSZ061>065-074>080-084>089-201100-
SOUTHWEST KANSAS

CITY           SKY/WX    TMP DP  RH WIND       PRES   REMARKS
DODGE CITY     MOCLDY    57  50  77 S10       30.00F
ELKHART          N/A     50  42  74 S7          N/A
GARDEN CITY    MOCLDY    54  48  80 SE7       29.98F
GREAT BEND     CLOUDY    61  48  63 S12       30.00S
LIBERAL        PTCLDY    54  48  82 S12       30.02S
$$

KSZ066>073-081>083-090>101-201100-
SOUTHEAST KANSAS

CITY           SKY/WX    TMP DP  RH WIND       PRES   REMARKS
CHANUTE        MOCLDY    53  47  79 S7        30.12R
COFFEYVILLE    MOCLDY    58  49  72 SE5       30.12R
HUTCHINSON     MOCLDY    59  48  67 S9        30.04F
NEWTON         CLOUDY    61  46  59 S15G21    30.09F
PARSONS        CLOUDY    58  47  66 CALM      30.13R
WICHITA INTL   MOCLDY    60  50  69 S10       30.06F
WICHITA JABRA  MOCLDY    61  50  67 S10       30.07S
WINFIELD       PTCLDY    61  51  70 S8        30.09S
$$

KSZ007>012-019>026-033>040-048>060-102>105-201100-
NORTHEAST KANSAS

CITY           SKY/WX    TMP DP  RH WIND       PRES   REMARKS
CONCORDIA      MOCLDY    61  49  64 S21G26    29.98S
EMPORIA        MOCLDY    56  47  71 S10       30.08S
LAWRENCE       CLOUDY    56  46  69 SE5       30.09R
MANHATTAN      CLOUDY    63  49  60 SW8       30.04S
OLATHE IND     CLOUDY    56  46  69 S9        30.10S
OLATHE EXE     CLOUDY    53  45  74 S6        30.09F
SALINA         PTCLDY    61  49  64 S9        30.03S
TOPEKA BILLARD MOCLDY    62  47  57 S3        30.08S
TOPEKA FORBES  MOCLDY    60  47  61 S7        30.08R
$$



USA.gov is the U.S. government's official web portal to all federal, state and local government web resources and services.